| time (UTC) | temp C | wind direction | speed KPH | gust KPH | rain 1hr cm | rain 24hr cm | rain mn cm | humidity % | barometer mb |
| 20260505004615 | 27 | 245 | 14.5 | 29.0 | 0.00 | 0.00 | 0.00 | 14 | 1004.2 |
| 20260505004112 | 27 | 246 | 17.7 | 37.0 | 0.00 | 0.00 | 0.00 | 14 | 1004.2 |
| 20260505003609 | 27 | 227 | 27.4 | 37.0 | 0.00 | 0.00 | 0.00 | 14 | 1004.3 |
| 20260505003107 | 27 | 221 | 27.4 | 29.0 | 0.00 | 0.00 | 0.00 | 14 | 1004.3 |
| 20260505002602 | 27 | 228 | 27.4 | 30.6 | 0.00 | 0.00 | 0.00 | 14 | 1004.3 |
| 20260505002101 | 27 | 227 | 30.6 | 30.6 | 0.00 | 0.00 | 0.00 | 14 | 1004.3 |
| 20260505001558 | 28 | 229 | 27.4 | 32.2 | 0.00 | 0.00 | 0.00 | 14 | 1004.4 |
| 20260505001055 | 28 | 230 | 24.1 | 37.0 | 0.00 | 0.00 | 0.00 | 13 | 1004.3 |
| 20260505000552 | 28 | 236 | 20.9 | 37.0 | 0.00 | 0.00 | 0.00 | 13 | 1004.3 |
| 20260505000050 | 28 | 227 | 25.7 | 38.6 | 0.00 | 0.00 | 0.00 | 13 | 1004.2 |
| 20260504235546 | 28 | 234 | 11.3 | 35.4 | 0.00 | 0.00 | 0.00 | 13 | 1004.3 |
| 20260504235043 | 28 | 229 | 25.7 | 45.1 | 0.00 | 0.00 | 0.00 | 13 | 1004.3 |
| 20260504234540 | 28 | 234 | 24.1 | 33.8 | 0.00 | 0.00 | 0.00 | 13 | 1004.4 |
| 20260504234037 | 28 | 223 | 20.9 | 43.5 | 0.00 | 0.00 | 0.00 | 14 | 1004.3 |
| 20260504233532 | 28 | 214 | 24.1 | 35.4 | 0.00 | 0.00 | 0.00 | 16 | 1004.1 |
| 20260504233029 | 28 | 233 | 19.3 | 32.2 | 0.00 | 0.00 | 0.00 | 17 | 1004.2 |
| 20260504232526 | 28 | 235 | 16.1 | 29.0 | 0.00 | 0.00 | 0.00 | 17 | 1004.3 |
| 20260504232024 | 28 | 224 | 14.5 | 22.5 | 0.00 | 0.00 | 0.00 | 20 | 1004.1 |
| 20260504231521 | 28 | 226 | 9.7 | 20.9 | 0.00 | 0.00 | 0.00 | 21 | 1004.2 |
| 20260504231017 | 29 | 228 | 16.1 | 22.5 | 0.00 | 0.00 | 0.00 | 20 | 1004.1 |
| 20260504230513 | 28 | 246 | 8.0 | 29.0 | 0.00 | 0.00 | 0.00 | 20 | 1004.3 |
| 20260504230013 | 28 | 246 | 19.3 | 24.1 | 0.00 | 0.00 | 0.00 | 21 | 1004.2 |
| 20260504225509 | 28 | 241 | 16.1 | 27.4 | 0.00 | 0.00 | 0.00 | 22 | 1004.5 |
| 20260504225006 | 29 | 229 | 17.7 | 24.1 | 0.00 | 0.00 | 0.00 | 21 | 1004.4 |
| 20260504224502 | 29 | 253 | 14.5 | 38.6 | 0.00 | 0.00 | 0.00 | 22 | 1004.5 |
| 20260504223959 | 29 | 228 | 20.9 | 35.4 | 0.00 | 0.00 | 0.00 | 22 | 1004.7 |
| 20260504223456 | 30 | 238 | 14.5 | 30.6 | 0.00 | 0.00 | 0.00 | 21 | 1004.7 |
| 20260504222951 | 29 | 226 | 8.0 | 19.3 | 0.00 | 0.00 | 0.00 | 21 | 1004.7 |
| 20260504222449 | 29 | 243 | 14.5 | 29.0 | 0.00 | 0.00 | 0.00 | 20 | 1005.0 |
| 20260504221947 | 30 | 259 | 6.4 | 19.3 | 0.00 | 0.00 | 0.00 | 19 | 1004.8 |
| 20260504221444 | 29 | 299 | 6.4 | 20.9 | 0.00 | 0.00 | 0.00 | 20 | 1004.9 |
| 20260504220941 | 30 | 247 | 19.3 | 24.1 | 0.00 | 0.00 | 0.00 | 20 | 1004.9 |
| 20260504220437 | 30 | 230 | 14.5 | 29.0 | 0.00 | 0.00 | 0.00 | 20 | 1004.9 |
| 20260504215934 | 30 | 213 | 17.7 | 25.7 | 0.00 | 0.00 | 0.00 | 19 | 1004.9 |
| 20260504215431 | 30 | 238 | 14.5 | 20.9 | 0.00 | 0.00 | 0.00 | 19 | 1004.9 |
| 20260504214927 | 29 | 246 | 6.4 | 24.1 | 0.00 | 0.00 | 0.00 | 20 | 1005.0 |
| 20260504214424 | 30 | 250 | 9.7 | 30.6 | 0.00 | 0.00 | 0.00 | 20 | 1005.1 |
| 20260504213920 | 29 | 287 | 9.7 | 22.5 | 0.00 | 0.00 | 0.00 | 20 | 1005.2 |
| 20260504213416 | 29 | 286 | 19.3 | 27.4 | 0.00 | 0.00 | 0.00 | 20 | 1005.2 |
| 20260504212914 | 29 | 234 | 20.9 | 35.4 | 0.00 | 0.00 | 0.00 | 20 | 1005.2 |
| 20260504212409 | 29 | 206 | 25.7 | 37.0 | 0.00 | 0.00 | 0.00 | 20 | 1005.2 |
| 20260504211908 | 29 | 241 | 12.9 | 30.6 | 0.00 | 0.00 | 0.00 | 21 | 1005.3 |
| 20260504211404 | 29 | 226 | 14.5 | 27.4 | 0.00 | 0.00 | 0.00 | 21 | 1005.8 |
| 20260504210901 | 29 | 233 | 19.3 | 30.6 | 0.00 | 0.00 | 0.00 | 21 | 1005.7 |
| 20260504210358 | 29 | 232 | 16.1 | 32.2 | 0.00 | 0.00 | 0.00 | 21 | 1005.8 |
| 20260504205855 | 29 | 235 | 17.7 | 37.0 | 0.00 | 0.00 | 0.00 | 20 | 1005.9 |
| 20260504205353 | 29 | 230 | 20.9 | 30.6 | 0.00 | 0.00 | 0.00 | 20 | 1006.0 |
| 20260504204851 | 29 | 234 | 9.7 | 19.3 | 0.00 | 0.00 | 0.00 | 23 | 1005.9 |
| 20260504204349 | 28 | 239 | 12.9 | 22.5 | 0.00 | 0.00 | 0.00 | 22 | 1006.0 |
| 20260504203848 | 28 | 227 | 20.9 | 33.8 | 0.00 | 0.00 | 0.00 | 22 | 1006.1 |
| 20260504203344 | 29 | 225 | 19.3 | 30.6 | 0.00 | 0.00 | 0.00 | 22 | 1006.0 |
| 20260504202840 | 29 | 322 | 4.8 | 14.5 | 0.00 | 0.00 | 0.00 | 23 | 1006.2 |
| 20260504202338 | 30 | 224 | 11.3 | 24.1 | 0.00 | 0.00 | 0.00 | 23 | 1006.1 |
| 20260504201834 | 29 | 230 | 12.9 | 24.1 | 0.00 | 0.00 | 0.00 | 23 | 1006.4 |
| 20260504201332 | 29 | 225 | 22.5 | 35.4 | 0.00 | 0.00 | 0.00 | 22 | 1006.4 |
| 20260504200829 | 28 | 236 | 17.7 | 27.4 | 0.00 | 0.00 | 0.00 | 22 | 1006.6 |
| 20260504200325 | 28 | 247 | 9.7 | 33.8 | 0.00 | 0.00 | 0.00 | 23 | 1006.6 |
| 20260504195822 | 28 | 231 | 16.1 | 20.9 | 0.00 | 0.00 | 0.00 | 23 | 1006.7 |
| 20260504195317 | 28 | 229 | 16.1 | 24.1 | 0.00 | 0.00 | 0.00 | 23 | 1006.7 |
| 20260504194814 | 28 | 234 | 16.1 | 29.0 | 0.00 | 0.00 | 0.00 | 23 | 1006.6 |
| 20260504194310 | 28 | 247 | 12.9 | 24.1 | 0.00 | 0.00 | 0.00 | 23 | 1006.9 |
| 20260504193807 | 28 | 227 | 20.9 | 22.5 | 0.00 | 0.00 | 0.00 | 24 | 1007.0 |
| 20260504193304 | 28 | 227 | 12.9 | 25.7 | 0.00 | 0.00 | 0.00 | 25 | 1007.1 |
| 20260504192803 | 28 | 308 | 6.4 | 19.3 | 0.00 | 0.00 | 0.00 | 26 | 1007.1 |
| 20260504192300 | 28 | 274 | 9.7 | 17.7 | 0.00 | 0.00 | 0.00 | 25 | 1007.1 |
| 20260504191759 | 27 | 238 | 11.3 | 22.5 | 0.00 | 0.00 | 0.00 | 26 | 1007.0 |
| 20260504191256 | 28 | 232 | 12.9 | 16.1 | 0.00 | 0.00 | 0.00 | 25 | 1007.1 |
| 20260504190751 | 28 | 303 | 16.1 | 29.0 | 0.00 | 0.00 | 0.00 | 25 | 1007.2 |
| 20260504190248 | 28 | 271 | 3.2 | 11.3 | 0.00 | 0.00 | 0.00 | 26 | 1007.4 |
| 20260504185744 | 27 | 226 | 9.7 | 24.1 | 0.00 | 0.00 | 0.00 | 26 | 1007.3 |
| 20260504185241 | 28 | 232 | 12.9 | 20.9 | 0.00 | 0.00 | 0.00 | 26 | 1007.4 |
| 20260504184737 | 28 | 295 | 12.9 | 29.0 | 0.00 | 0.00 | 0.00 | 25 | 1007.7 |
| 20260504184233 | 28 | 295 | 9.7 | 22.5 | 0.00 | 0.00 | 0.00 | 26 | 1007.6 |
| 20260504183729 | 27 | 286 | 6.4 | 20.9 | 0.00 | 0.00 | 0.00 | 26 | 1007.8 |
| 20260504183226 | 28 | 239 | 12.9 | 30.6 | 0.00 | 0.00 | 0.00 | 25 | 1008.0 |
| 20260504182724 | 28 | 206 | 6.4 | 27.4 | 0.00 | 0.00 | 0.00 | 25 | 1007.8 |
| 20260504182221 | 27 | 267 | 9.7 | 22.5 | 0.00 | 0.00 | 0.00 | 25 | 1008.1 |
| 20260504181719 | 27 | 248 | 6.4 | 25.7 | 0.00 | 0.00 | 0.00 | 26 | 1008.2 |
| 20260504181216 | 27 | 237 | 9.7 | 24.1 | 0.00 | 0.00 | 0.00 | 25 | 1008.3 |
| 20260504180715 | 27 | 278 | 19.3 | 22.5 | 0.00 | 0.00 | 0.00 | 24 | 1008.4 |
| 20260504180213 | 27 | 313 | 4.8 | 19.3 | 0.00 | 0.00 | 0.00 | 25 | 1008.6 |
| 20260504175710 | 27 | 289 | 19.3 | 27.4 | 0.00 | 0.00 | 0.00 | 24 | 1008.6 |
| 20260504175207 | 27 | 294 | 19.3 | 30.6 | 0.00 | 0.00 | 0.00 | 26 | 1008.9 |
| 20260504174705 | 27 | 231 | 27.4 | 29.0 | 0.00 | 0.00 | 0.00 | 27 | 1008.7 |
| 20260504174203 | 27 | 235 | 20.9 | 27.4 | 0.00 | 0.00 | 0.00 | 27 | 1008.9 |
| 20260504173659 | 27 | 233 | 9.7 | 27.4 | 0.00 | 0.00 | 0.00 | 28 | 1008.9 |
| 20260504173156 | 27 | 323 | 24.1 | 33.8 | 0.00 | 0.00 | 0.00 | 26 | 1008.9 |
| 20260504172652 | 27 | 292 | 8.0 | 24.1 | 0.00 | 0.00 | 0.00 | 28 | 1009.2 |
| 20260504172149 | 27 | 230 | 22.5 | 25.7 | 0.00 | 0.00 | 0.00 | 27 | 1009.1 |
| 20260504171645 | 26 | 220 | 20.9 | 25.7 | 0.00 | 0.00 | 0.00 | 27 | 1009.0 |
| 20260504171143 | 27 | 240 | 11.3 | 25.7 | 0.00 | 0.00 | 0.00 | 28 | 1009.0 |
| 20260504170639 | 27 | 227 | 22.5 | 24.1 | 0.00 | 0.00 | 0.00 | 27 | 1009.2 |
| 20260504170137 | 27 | 286 | 12.9 | 24.1 | 0.00 | 0.00 | 0.00 | 26 | 1009.2 |
| 20260504151022 | 22 | 243 | 4.8 | 22.5 | 0.00 | 0.00 | 0.00 | 44 | 1009.7 |
| 20260504150520 | 21 | 243 | 8.0 | 17.7 | 0.00 | 0.00 | 0.00 | 45 | 1009.9 |
| 20260504140940 | 17 | 240 | 12.9 | 20.9 | 0.00 | 0.00 | 0.00 | 54 | 1010.1 |
| 20260504140436 | 17 | 252 | 17.7 | 22.5 | 0.00 | 0.00 | 0.00 | 55 | 1009.9 |
| 20260504130401 | 15 | 221 | 14.5 | 17.7 | 0.00 | 0.00 | 0.00 | 62 | 1009.1 |
| 20260504110248 | 15 | 238 | 16.1 | 25.7 | 0.00 | 0.00 | 0.00 | 61 | 1009.0 |
| 20260504100206 | 15 | 230 | 11.3 | 24.1 | 0.00 | 0.00 | 0.00 | 60 | 1009.3 |
| 20260504090128 | 15 | 209 | 20.9 | 27.4 | 0.00 | 0.00 | 0.00 | 59 | 1009.9 |
| 20260504081558 | 15 | 212 | 30.6 | 40.2 | 0.00 | 0.00 | 0.00 | 56 | 1010.2 |
| 20260504081054 | 15 | 212 | 30.6 | 37.0 | 0.00 | 0.00 | 0.00 | 55 | 1010.2 |
| 20260504080551 | 15 | 211 | 24.1 | 29.0 | 0.00 | 0.00 | 0.00 | 55 | 1010.2 |
| 20260504050404 | 13 | 177 | 6.4 | 9.7 | 0.00 | 0.00 | 0.00 | 48 | 1012.1 |
| 20260504045901 | 13 | 187 | 6.4 | 11.3 | 0.00 | 0.00 | 0.00 | 48 | 1012.2 |
| 20260504045356 | 13 | 196 | 8.0 | 14.5 | 0.00 | 0.00 | 0.00 | 47 | 1012.2 |
| 20260504044853 | 14 | 175 | 8.0 | 14.5 | 0.00 | 0.00 | 0.00 | 46 | 1012.0 |
| 20260504044350 | 15 | 189 | 12.9 | 16.1 | 0.00 | 0.00 | 0.00 | 45 | 1012.1 |
| 20260504043848 | 15 | 169 | 12.9 | 17.7 | 0.00 | 0.00 | 0.00 | 45 | 1012.2 |
| 20260504043344 | 15 | 184 | 14.5 | 17.7 | 0.00 | 0.00 | 0.00 | 45 | 1012.2 |
| 20260504042842 | 15 | 193 | 9.7 | 16.1 | 0.00 | 0.00 | 0.00 | 44 | 1012.3 |
| 20260504042338 | 15 | 195 | 9.7 | 17.7 | 0.00 | 0.00 | 0.00 | 45 | 1012.5 |
| 20260504041835 | 14 | 193 | 6.4 | 11.3 | 0.00 | 0.00 | 0.00 | 45 | 1012.5 |
| 20260504041331 | 14 | 188 | 9.7 | 14.5 | 0.00 | 0.00 | 0.00 | 46 | 1012.3 |
| 20260504040827 | 14 | 169 | 9.7 | 14.5 | 0.00 | 0.00 | 0.00 | 45 | 1012.2 |
| 20260504040325 | 13 | 154 | 9.7 | 11.3 | 0.00 | 0.00 | 0.00 | 46 | 1012.3 |
| 20260504035820 | 14 | 159 | 6.4 | 11.3 | 0.00 | 0.00 | 0.00 | 46 | 1012.5 |
| 20260504035318 | 14 | 163 | 12.9 | 14.5 | 0.00 | 0.00 | 0.00 | 46 | 1012.6 |
| 20260504034815 | 13 | 165 | 9.7 | 14.5 | 0.00 | 0.00 | 0.00 | 47 | 1012.5 |
| 20260504034313 | 13 | 159 | 8.0 | 9.7 | 0.00 | 0.00 | 0.00 | 47 | 1012.3 |
| 20260504033810 | 13 | 153 | 8.0 | 9.7 | 0.00 | 0.00 | 0.00 | 46 | 1012.5 |
| 20260504033308 | 15 | 157 | 9.7 | 16.1 | 0.00 | 0.00 | 0.00 | 43 | 1012.6 |
| 20260504032804 | 16 | 153 | 14.5 | 17.7 | 0.00 | 0.00 | 0.00 | 42 | 1012.6 |
| 20260504032301 | 14 | 140 | 6.4 | 11.3 | 0.00 | 0.00 | 0.00 | 44 | 1012.3 |
| 20260504031757 | 13 | 151 | 6.4 | 8.0 | 0.00 | 0.00 | 0.00 | 44 | 1012.5 |
| 20260504031255 | 13 | 153 | 4.8 | 4.8 | 0.00 | 0.00 | 0.00 | 44 | 1012.3 |
| 20260504030751 | 14 | 151 | 6.4 | 8.0 | 0.00 | 0.00 | 0.00 | 43 | 1012.2 |
| 20260504030248 | 14 | 146 | 6.4 | 8.0 | 0.00 | 0.00 | 0.00 | 44 | 1012.3 |
| 20260504025745 | 14 | 154 | 4.8 | 6.4 | 0.00 | 0.00 | 0.00 | 44 | 1012.3 |
| 20260504025242 | 14 | 155 | 4.8 | 6.4 | 0.00 | 0.00 | 0.00 | 44 | 1012.2 |
| 20260504024739 | 15 | 156 | 6.4 | 6.4 | 0.00 | 0.00 | 0.00 | 43 | 1012.3 |
| 20260504024235 | 16 | 154 | 8.0 | 9.7 | 0.00 | 0.00 | 0.00 | 40 | 1012.5 |
| 20260504023732 | 16 | 149 | 6.4 | 9.7 | 0.00 | 0.00 | 0.00 | 40 | 1012.5 |
| 20260504023228 | 16 | 164 | 4.8 | 6.4 | 0.00 | 0.00 | 0.00 | 40 | 1012.3 |
| 20260504022724 | 17 | 171 | 4.8 | 6.4 | 0.00 | 0.00 | 0.00 | 39 | 1012.1 |
| 20260504022220 | 17 | 186 | 4.8 | 8.0 | 0.00 | 0.00 | 0.00 | 38 | 1012.3 |
| 20260504021718 | 18 | 188 | 8.0 | 8.0 | 0.00 | 0.00 | 0.00 | 38 | 1012.2 |
| 20260504021215 | 18 | 197 | 8.0 | 11.3 | 0.00 | 0.00 | 0.00 | 37 | 1012.2 |
| 20260504020712 | 19 | 207 | 9.7 | 11.3 | 0.00 | 0.00 | 0.00 | 37 | 1012.2 |
| 20260504020208 | 20 | 196 | 6.4 | 12.9 | 0.00 | 0.00 | 0.00 | 36 | 1012.0 |
| 20260504015705 | 20 | 205 | 11.3 | 16.1 | 0.00 | 0.00 | 0.00 | 35 | 1012.1 |
| 20260504015201 | 21 | 200 | 14.5 | 22.5 | 0.00 | 0.00 | 0.00 | 34 | 1012.2 |
| 20260504014656 | 21 | 206 | 17.7 | 24.1 | 0.00 | 0.00 | 0.00 | 33 | 1012.1 |
| 20260504014154 | 22 | 209 | 19.3 | 30.6 | 0.00 | 0.00 | 0.00 | 32 | 1012.0 |
| 20260504013652 | 21 | 208 | 14.5 | 20.9 | 0.00 | 0.00 | 0.00 | 33 | 1012.0 |
| 20260504013148 | 21 | 198 | 14.5 | 25.7 | 0.00 | 0.00 | 0.00 | 33 | 1011.9 |
| 20260504012645 | 22 | 209 | 20.9 | 29.0 | 0.00 | 0.00 | 0.00 | 32 | 1011.8 |
| 20260504012143 | 22 | 210 | 19.3 | 29.0 | 0.00 | 0.00 | 0.00 | 32 | 1012.0 |
| 20260504011640 | 22 | 206 | 25.7 | 32.2 | 0.00 | 0.00 | 0.00 | 31 | 1012.1 |
| 20260504011136 | 22 | 209 | 16.1 | 29.0 | 0.00 | 0.00 | 0.00 | 31 | 1011.8 |
| 20260504010632 | 23 | 218 | 12.9 | 32.2 | 0.00 | 0.00 | 0.00 | 31 | 1012.0 |
| 20260504010128 | 23 | 206 | 20.9 | 29.0 | 0.00 | 0.00 | 0.00 | 30 | 1012.0 |
| 20260504005625 | 23 | 210 | 11.3 | 27.4 | 0.00 | 0.00 | 0.00 | 31 | 1012.1 |
| 20260504005122 | 23 | 215 | 27.4 | 29.0 | 0.00 | 0.00 | 0.00 | 30 | 1012.1 |